Location: Benque
(43.2594°N, 0.9178°E)
Time: 16:41:00
(UTC+00:00)

Cosmos-2242 - Pass Details

Date: 24 January 2020
Orbit: 590 x 618 km, 82.5° (Epoch: 27 February)

Event Time Altitude Azimuth Distance (km) Brightness Sun altitude
Rises 17:26:52 0° 0° (N) 2,870 6.3 -5.8°
Reaches altitude 10° 17:29:17 10° 10° (N) 1,956 5.3 -6.2°
Maximum altitude 17:33:13 34° 75° (ENE) 1,005 3.6 -6.9°
Drops below altitude 10° 17:37:05 10° 141° (SE) 1,927 5.4 -7.6°
Sets 17:39:26 0° 151° (SSE) 2,820 6.3 -8.0°
